sat.trackr.live / text

‹ back to catalog

STARLINK-5379

NORAD 54868 · 2022-177BA

PAYLOAD ACTIVE UNKNOWN

§ Identity

Operator
Country
US
Launch date
2022-12-28
Launch site
AFETR
Launch vehicle
Mass (kg)
RCS (m²)

Purposes: comms

External: N2YO · Heavens-Above · Gunter

§ Orbital elements

Epoch: 2026-09-20T22:20:03.560064Z

Period
94.27 min
Inclination
43.0037°
Eccentricity
0.0001683
Mean motion
15.27574128 rev/d
Perigee alt
481.9 km
Apogee alt
484.2 km
Semi-major
6,861.2 km
B*
1.8198e-5
RAAN
98.6605°
Arg perigee
268.4821°
Mean anomaly
91.5837°
Rev number
20,695

§ Raw data

STARLINK-53791 54868U 22177BA  26263.93059676  .00000238  00000+0  18198-4 0  99972 54868  43.0037  98.6605 0001683 268.4821  91.5837 15.27574128206950

JSON: /api/v1/satellites/54868 · /tle

For live sub-satellite position, see the globe view (requires WebGL).

§ Visibility from observer

Set your observer location to see the next 7 days of passes ≥ 10°. The values pass through the URL so the page stays shareable.

No JS? Fill the form by hand. The geolocation button needs JavaScript.